{"data":{"norad_id":67007,"intl_designator":"2025-293E","name":"STARLINK-36123","alt_names":[],"object_type":"PAYLOAD","status":"ACTIVE","operator":null,"country":"US","launch_date":"2025-12-10","launch_site_code":"AFWTR","launch_vehicle":null,"mission":null,"orbit_class":"UNKNOWN","rcs_meters":null,"size_class":null,"mass_kg":null,"dimensions":null,"purposes":["comms"],"wikipedia_slug":null,"has_3d_model":false,"image_url":null,"decayed_at":null,"tle_current":{"epoch":"2026-05-24T16:25:38.942400Z","epoch_age_seconds":101753,"freshness":"FRESH","line1":"1 67007U 25293E   26144.68447850  .00002671  00000+0  23155-3 0  9994","line2":"2 67007  70.0006 262.7417 0002912 271.0044  89.0782 14.98338254 26274","mean_motion":14.98338254,"eccentricity":0.0002912,"inclination_deg":70.0006,"raan_deg":262.7417,"arg_perigee_deg":271.0044,"mean_anomaly_deg":89.0782,"bstar":0.00023155,"rev_number":2627,"period_min":96.106469694393,"perigee_km":570.00647751042,"apogee_km":574.05425498452,"semimajor_km":6950.1673662475,"source":"CELESTRAK","updated_at":"2026-05-25T13:38:21.430033Z"}}}